Wind_Speed
32 32 33 33 34 34 34 34 35 35 35 36 36 36 37 37 37 38 38 37 37 37 36 36 35 35 34 34 34 34 34 33 33 32 32 32 31 30 30 30 30 30 30
34 34 34 34 35 35 36 37 37 37 38 38 39 39 39 40 40 40 40 40 40 39 39 39 38 38 37 37 37 37 37 36 36 35 35 35 34 34 33 34 33 32 32
36 36 35 36 36 37 37 38 39 39 40 41 41 41 42 42 42 42 42 42 42 42 41 41 41 41 41 40 39 39 39 39 38 38 37 38 37 37 36 37 36 35 34
38 37 37 38 38 39 39 40 40 41 41 42 43 44 44 44 44 44 44 44 44 44 44 43 43 43 43 42 41 41 41 41 41 41 40 40 40 40 39 39 39 38 38
39 39 39 40 40 40 41 42 42 42 43 43 44 44 45 45 45 45 45 45 45 45 46 46 46 46 45 45 44 44 43 43 43 43 43 43 42 42 42 41 41 41 41
42 42 42 42 42 43 43 43 44 44 45 44 44 45 45 46 46 46 46 46 47 47 47 48 48 48 48 47 47 46 46 46 46 46 46 46 45 45 44 44 43 43 43
45 44 43 43 44 44 45 45 46 46 46 47 47 47 47 47 47 47 47 48 48 48 49 49 50 50 50 50 50 50 49 49 49 49 49 49 48 48 48 47 47 46 46
46 45 46 45 46 46 47 47 48 48 48 49 49 49 49 49 49 49 49 49 49 49 50 51 51 52 52 52 52 52 52 51 52 52 52 52 52 51 51 50 50 49 49
48 47 47 47 48 48 48 49 49 49 49 50 50 50 50 50 51 50 51 52 52 52 52 52 53 53 54 54 54 54 54 54 55 55 55 55 55 55 54 54 53 53 53
48 49 48 49 49 50 50 50 50 50 51 51 52 52 52 52 53 53 53 53 54 54 55 55 56 56 56 56 57 57 57 57 57 57 58 58 58 58 58 58 57 56 56
50 50 50 49 50 50 51 51 51 51 52 52 52 52 52 53 53 55 54 54 55 56 57 57 58 59 59 59 60 60 60 59 59 59 60 60 60 60 60 60 60 60 59
51 51 50 51 51 51 51 52 51 52 52 53 53 53 53 53 53 54 55 55 56 56 57 58 59 60 61 61 61 61 61 61 61 61 61 61 62 62 62 62 62 62 62
51 52 51 51 51 50 51 51 51 52 52 53 53 53 53 54 54 55 56 56 57 57 58 59 60 61 61 61 62 62 61 62 62 63 63 63 63 63 63 64 64 64 64
50 51 51 51 51 52 52 52 51 51 51 52 53 53 53 54 55 56 57 58 59 58 58 58 59 60 61 61 62 63 62 62 63 64 64 64 64 65 64 65 66 66 65
50 50 51 51 51 52 53 53 52 51 51 51 52 53 54 55 56 57 58 59 60 59 58 58 59 59 61 61 62 62 62 63 63 63 64 65 65 66 66 66 66 66 66
50 50 50 50 51 51 52 52 52 52 52 52 52 53 54 55 57 57 58 58 59 60 59 59 60 60 60 61 61 61 61 61 62 63 62 63 64 65 65 66 66 67 67
50 50 50 51 51 52 52 52 52 53 52 52 53 53 54 54 55 56 58 58 59 59 59 59 60 60 60 60 60 60 60 61 62 62 62 63 63 63 64 65 66 66 66
50 50 51 51 52 52 52 52 52 52 52 53 53 53 53 54 55 55 56 57 58 59 59 58 58 59 59 60 60 60 59 60 61 61 61 61 62 62 62 63 63 64 65
49 49 50 50 50 51 51 51 50 51 51 52 52 52 53 54 54 55 55 56 56 56 57 57 57 58 59 60 60 59 59 59 60 59 59 59 60 60 59 60 61 62 63
47 48 48 48 48 48 49 49 49 50 50 51 51 51 52 52 53 53 54 53 54 54 54 55 56 57 58 58 58 58 58 58 59 59 59 59 59 59 59 60 60 61 62
47 47 47 47 48 48 48 48 49 49 50 50 50 50 50 51 51 52 52 52 53 53 54 54 54 55 55 56 56 58 58 58 58 58 58 58 58 58 59 59 60 60 61
46 46 47 46 47 47 48 48 48 48 48 49 48 48 49 49 49 50 52 52 52 53 53 54 54 54 54 55 55 55 56 56 56 56 57 56 57 57 58 58 58 58 59
45 45 45 46 46 46 46 46 46 46 46 46 46 47 47 48 49 50 51 51 51 52 52 52 52 52 52 52 53 54 54 54 53 54 55 54 54 55 55 56 57 57 57
44 44 44 44 44 44 44 44 44 45 45 45 45 46 46 47 47 47 48 48 49 49 49 50 50 50 51 51 51 52 52 53 52 52 54 53 53 53 53 54 54 55 56
43 43 43 42 42 42 42 42 43 43 44 44 44 44 45 45 44 44 45 45 45 45 46 48 49 49 49 49 49 49 49 50 50 50 52 52 52 52 51 51 52 53 54
41 41 41 40 40 41 41 42 42 42 42 42 42 42 42 42 42 42 43 43 43 43 43 44 44 45 45 46 46 47 47 47 48 48 49 50 50 50 49 50 50 51 52
Wind_Direction
262 263 263 263 263 263 263 262 261 261 261 261 261 260 260 259 259 259 259 259 259 258 258 258 259 260 260 259 259 259 259 260 260 260 260 260 259 259 258 258 259 258 256
263 265 265 265 265 264 264 263 262 262 261 261 261 261 261 260 259 259 259 259 259 259 259 258 259 259 260 260 260 259 259 259 260 260 261 261 260 259 259 258 259 258 257
265 266 266 266 266 265 265 265 264 264 263 263 262 261 261 261 260 259 259 259 259 259 259 258 259 259 260 261 261 260 260 260 260 261 261 261 261 260 259 259 258 257 256
265 266 267 267 267 267 266 266 266 265 265 265 264 263 261 260 260 260 259 259 259 259 259 259 259 260 260 261 261 260 260 260 261 261 260 261 261 260 259 259 258 257 256
266 267 267 267 267 267 267 267 267 267 267 266 265 263 262 261 261 260 260 259 259 259 260 260 260 260 261 261 261 260 260 261 261 261 261 261 261 260 259 259 258 258 257
266 267 269 269 268 268 269 268 268 268 267 265 264 263 262 261 261 261 260 260 260 260 260 261 261 261 261 261 262 262 261 261 261 261 261 261 262 261 260 259 259 259 259
267 268 269 270 269 269 270 270 270 269 267 265 265 264 263 262 260 260 260 260 260 260 261 262 262 261 262 262 262 262 262 262 262 262 261 261 261 262 261 260 259 259 259
268 268 269 269 270 270 271 271 271 269 268 267 266 265 264 263 261 260 260 259 260 260 261 262 262 262 262 262 262 262 262 263 262 262 262 261 261 261 261 260 259 259 259
267 269 269 269 270 270 271 272 271 269 268 268 267 266 265 263 262 260 261 260 261 261 262 262 262 262 262 262 262 262 262 263 263 262 262 262 261 261 261 260 260 259 259
267 268 269 270 271 271 270 271 271 270 269 268 268 267 266 265 263 261 260 261 262 262 262 263 262 262 263 263 263 263 263 264 264 263 262 262 261 261 261 260 259 259 259
267 268 269 271 272 271 271 270 270 270 270 269 269 268 267 266 265 263 261 262 262 263 263 263 263 263 263 263 263 264 264 264 264 264 263 263 262 261 261 260 259 259 259
267 267 269 270 271 271 271 271 271 270 270 270 269 269 267 267 266 265 264 264 264 264 264 264 264 264 264 264 264 264 264 264 264 264 263 263 263 261 261 261 260 260 259
267 268 269 270 271 271 272 272 272 272 271 271 270 270 269 268 267 266 266 266 265 265 266 265 265 265 264 264 263 263 264 264 264 264 264 265 264 263 262 261 261 260 260
268 269 270 270 271 271 271 272 272 272 272 272 271 270 269 269 268 267 267 267 266 266 266 265 265 265 264 264 264 264 264 264 264 265 265 265 264 264 263 262 261 261 260
269 270 270 270 271 271 272 272 273 272 273 273 272 270 269 269 269 268 268 268 268 267 266 266 265 265 265 265 265 265 265 265 265 265 265 265 265 264 263 262 261 260 260
270 270 271 271 272 272 272 272 273 273 273 273 272 272 271 270 270 270 269 269 269 268 267 266 265 265 265 265 266 266 265 265 265 266 266 266 265 264 263 262 262 261 260
270 270 271 271 272 272 273 273 273 273 273 273 273 272 272 271 271 271 271 270 270 269 268 267 266 266 266 266 266 266 266 266 266 266 267 267 265 264 263 263 262 261 260
269 270 271 272 272 273 273 274 274 274 274 274 274 273 272 272 272 273 273 272 271 270 269 268 267 267 266 267 266 267 267 267 267 267 267 266 266 265 264 263 263 262 261
270 271 272 273 273 273 273 273 273 274 274 275 274 274 273 273 273 274 274 274 272 271 270 269 268 268 267 267 266 266 267 266 266 266 266 266 266 266 265 265 264 263 262
271 271 272 273 273 273 273 273 274 274 274 274 274 274 274 274 274 275 275 273 272 271 271 270 269 268 267 267 266 266 266 266 265 266 267 268 268 267 267 266 265 264 263
271 272 272 272 273 274 274 274 274 274 274 274 275 275 276 275 275 274 274 273 273 272 271 271 270 269 268 267 267 267 266 267 266 267 267 268 268 268 268 267 267 266 265
271 272 272 273 274 274 275 275 275 275 276 275 275 275 276 275 274 274 274 274 274 273 272 271 271 270 269 268 268 268 267 267 266 267 268 268 268 268 267 267 268 267 266
271 272 273 272 273 274 275 275 276 276 277 276 276 276 276 276 276 275 274 274 274 273 272 272 272 271 270 270 268 268 267 267 267 266 267 267 267 268 268 267 268 268 267
272 272 273 273 273 274 275 276 277 277 277 277 277 277 277 277 276 276 275 275 274 273 272 272 272 272 271 270 269 268 268 268 267 267 267 267 267 268 268 267 267 268 268
271 272 273 274 274 274 276 277 278 278 279 278 278 278 278 277 277 276 276 276 275 274 273 272 272 272 271 270 269 269 269 268 268 268 269 270 269 268 268 268 269 269 268
272 273 274 274 274 275 276 277 278 279 279 279 279 279 278 278 278 277 276 276 276 275 274 273 272 271 271 270 269 269 269 269 269 269 269 270 270 269 268 268 269 270 269
Height
5763 5764 5764 5765 5766 5767 5767 5768 5769 5770 5771 5773 5774 5775 5777 5778 5779 5781 5783 5784 5786 5788 5789 5791 5792 5794 5795 5796 5797 5799 5800 5801 5803 5804 5805 5806 5808 5809 5810 5811 5812 5813 5815
5755 5756 5757 5757 5758 5758 5759 5760 5761 5761 5763 5764 5765 5766 5767 5769 5770 5772 5774 5775 5777 5779 5781 5782 5784 5785 5787 5788 5789 5791 5792 5793 5795 5796 5798 5799 5800 5801 5803 5804 5805 5806 5808
5747 5747 5748 5749 5749 5750 5750 5751 5751 5752 5753 5754 5755 5756 5757 5759 5760 5762 5764 5766 5768 5770 5771 5773 5774 5776 5778 5779 5781 5782 5783 5784 5786 5788 5789 5791 5792 5793 5795 5796 5797 5799 5800
5738 5739 5739 5740 5740 5741 5741 5741 5742 5742 5743 5743 5744 5745 5746 5748 5749 5751 5753 5755 5757 5759 5761 5763 5764 5766 5768 5769 5771 5772 5774 5775 5777 5778 5780 5781 5783 5784 5786 5787 5788 5790 5791
5728 5729 5729 5730 5730 5730 5731 5731 5731 5732 5732 5732 5732 5733 5734 5736 5738 5740 5742 5744 5746 5748 5750 5752 5753 5755 5757 5758 5760 5762 5763 5765 5766 5768 5770 5771 5773 5774 5776 5777 5779 5780 5782
5718 5719 5719 5719 5719 5719 5719 5719 5720 5719 5719 5719 5720 5721 5722 5724 5726 5728 5730 5732 5734 5736 5738 5740 5742 5744 5745 5747 5748 5750 5752 5753 5755 5757 5759 5760 5762 5763 5765 5767 5768 5770 5772
5707 5707 5708 5708 5708 5708 5707 5707 5707 5707 5707 5707 5708 5709 5710 5711 5713 5715 5717 5719 5721 5724 5726 5728 5730 5732 5733 5735 5736 5738 5739 5741 5743 5745 5746 5748 5750 5752 5754 5755 5757 5759 5761
5695 5695 5696 5696 5695 5695 5695 5695 5694 5694 5694 5695 5696 5696 5698 5699 5700 5702 5704 5706 5708 5711 5713 5714 5717 5719 5720 5722 5723 5725 5726 5728 5730 5731 5733 5735 5737 5739 5741 5743 5745 5747 5749
5683 5683 5683 5683 5683 5682 5682 5681 5681 5681 5681 5681 5682 5683 5684 5686 5687 5689 5691 5693 5695 5697 5699 5701 5703 5704 5706 5708 5710 5711 5713 5714 5716 5717 5719 5721 5723 5725 5727 5729 5731 5733 5735
5670 5670 5670 5670 5670 5669 5669 5668 5668 5667 5668 5668 5668 5668 5669 5670 5673 5676 5678 5679 5680 5682 5684 5686 5688 5690 5692 5693 5695 5696 5698 5699 5701 5702 5704 5706 5707 5709 5711 5714 5716 5718 5721
5657 5657 5657 5657 5657 5656 5656 5655 5654 5654 5654 5654 5654 5654 5655 5656 5657 5660 5663 5665 5666 5667 5669 5671 5673 5674 5676 5678 5679 5680 5682 5683 5685 5686 5688 5689 5691 5693 5695 5697 5700 5702 5705
5644 5644 5644 5643 5643 5643 5642 5641 5641 5640 5640 5640 5639 5639 5640 5641 5642 5644 5647 5649 5651 5652 5653 5655 5656 5658 5659 5661 5662 5664 5665 5666 5668 5669 5670 5672 5673 5675 5678 5680 5682 5685 5687
5630 5631 5630 5630 5629 5629 5628 5627 5627 5626 5626 5626 5625 5625 5626 5626 5627 5628 5631 5633 5635 5636 5637 5638 5639 5640 5641 5643 5645 5646 5648 5649 5650 5651 5652 5654 5655 5657 5660 5662 5664 5666 5669
5617 5617 5617 5616 5615 5615 5614 5613 5613 5612 5612 5611 5611 5611 5611 5612 5612 5613 5615 5616 5618 5620 5621 5622 5622 5623 5624 5626 5627 5628 5630 5631 5632 5633 5634 5636 5637 5638 5641 5643 5645 5647 5650
5603 5603 5603 5602 5601 5601 5600 5599 5599 5598 5598 5598 5597 5597 5597 5597 5597 5598 5599 5600 5601 5603 5606 5606 5605 5606 5607 5608 5609 5610 5612 5613 5613 5614 5615 5617 5618 5619 5621 5623 5625 5627 5630
5590 5589 5588 5588 5587 5586 5586 5585 5585 5584 5584 5583 5583 5582 5582 5582 5582 5582 5583 5583 5583 5585 5588 5590 5589 5589 5589 5591 5592 5593 5594 5595 5595 5596 5597 5598 5599 5600 5601 5603 5605 5607 5610
5576 5575 5575 5574 5573 5572 5572 5571 5571 5570 5569 5569 5568 5568 5567 5567 5567 5567 5567 5567 5567 5567 5569 5573 5572 5572 5572 5573 5574 5575 5577 5578 5578 5578 5579 5579 5580 5581 5582 5584 5586 5588 5591
5562 5561 5560 5560 5559 5558 5558 5557 5556 5555 5555 5554 5553 5553 5552 5552 5552 5551 5551 5551 5551 5551 5551 5554 5556 5555 5556 5556 5557 5558 5559 5560 5560 5561 5561 5561 5562 5563 5564 5565 5567 5569 5571
5548 5547 5547 5546 5545 5544 5543 5542 5542 5541 5540 5539 5538 5538 5537 5537 5537 5536 5535 5535 5535 5534 5535 5536 5539 5539 5539 5539 5540 5541 5542 5542 5543 5543 5544 5544 5545 5545 5546 5547 5548 5550 5553
5534 5533 5533 5532 5531 5530 5529 5528 5527 5527 5526 5525 5524 5523 5522 5522 5521 5521 5520 5519 5519 5519 5519 5519 5521 5522 5523 5523 5523 5524 5525 5525 5526 5526 5526 5527 5528 5528 5529 5530 5532 5533 5534
5521 5520 5519 5518 5517 5517 5516 5514 5513 5512 5512 5511 5510 5509 5508 5507 5506 5505 5505 5504 5504 5503 5503 5503 5504 5505 5506 5507 5507 5507 5508 5508 5509 5509 5510 5511 5511 5512 5512 5512 5513 5513 5515
5507 5507 5506 5505 5504 5503 5502 5501 5499 5498 5497 5496 5496 5495 5493 5492 5492 5491 5490 5489 5489 5488 5488 5488 5489 5489 5490 5490 5490 5490 5490 5492 5494 5494 5493 5494 5494 5495 5495 5495 5495 5496 5497
5494 5493 5493 5492 5491 5490 5488 5487 5485 5484 5484 5483 5482 5481 5480 5478 5477 5476 5475 5475 5474 5473 5473 5473 5473 5474 5474 5474 5474 5474 5474 5474 5476 5477 5476 5479 5478 5478 5479 5479 5479 5480 5480
5482 5481 5480 5478 5478 5477 5475 5474 5472 5471 5470 5469 5468 5467 5466 5465 5463 5462 5461 5461 5460 5459 5459 5458 5459 5458 5458 5457 5457 5458 5458 5459 5460 5460 5460 5462 5462 5463 5463 5463 5463 5463 5463
5469 5468 5467 5466 5465 5464 5462 5461 5460 5458 5458 5456 5455 5454 5452 5451 5450 5449 5448 5448 5447 5446 5445 5444 5443 5443 5442 5442 5442 5442 5443 5443 5445 5445 5444 5445 5446 5447 5448 5448 5447 5446 5446
5456 5455 5454 5453 5452 5451 5450 5449 5447 5446 5445 5444 5443 5441 5440 5438 5437 5436 5435 5434 5434 5433 5432 5431 5430 5429 5429 5428 5428 5428 5428 5428 5429 5431 5430 5429 5430 5430 5432 5433 5431 5430 5430